Location: Chisholm
(54.9102°N, 114.1701°W)
Time: 10:37:28
(UTC+00:00)

N. Korean satellite - Pass Details

Date: 01 December 2021
Orbit: 447 x 491 km, 97.3° (Epoch: 23 January)

Event Time Altitude Azimuth Distance (km) Brightness Sun altitude
Rises 12:30:39 0° 20° (NNE) 2,486 10.4 -25.6°
Reaches altitude 10° 12:32:50 10° 30° (NNE) 1,601 9.5 -25.3°
Maximum altitude 12:35:59 34° 97° (E) 774 8.1 -24.8°
Drops below altitude 10° 12:39:06 10° 164° (SSE) 1,576 9.4 -24.4°
Sets 12:41:14 0° 174° (S) 2,441 10.3 -24.1°
